sat.trackr.live / text

‹ back to catalog

STARLINK-32091

NORAD 59684 · 2024-086C

PAYLOAD ACTIVE UNKNOWN

§ Identity

Operator
Country
US
Launch date
2024-05-08
Launch site
AFETR
Launch vehicle
Mass (kg)
RCS (m²)

Purposes: comms

External: N2YO · Heavens-Above · Gunter

§ Orbital elements

Epoch: 2026-09-21T14:50:58.729056Z

Period
94.27 min
Inclination
43.0030°
Eccentricity
0.0001431
Mean motion
15.27586861 rev/d
Perigee alt
482.0 km
Apogee alt
484.0 km
Semi-major
6,861.2 km
B*
5.2330e-5
RAAN
25.8958°
Arg perigee
268.9025°
Mean anomaly
91.1663°
Rev number
13,417

§ Raw data

STARLINK-320911 59684U 24086C   26264.61873529  .00001178  00000+0  52330-4 0  99962 59684  43.0030  25.8958 0001431 268.9025  91.1663 15.27586861134173

JSON: /api/v1/satellites/59684 · /tle

For live sub-satellite position, see the globe view (requires WebGL).

§ Visibility from observer

Set your observer location to see the next 7 days of passes ≥ 10°. The values pass through the URL so the page stays shareable.

No JS? Fill the form by hand. The geolocation button needs JavaScript.